Weather History for Sacramento International, CA

Change the Weather History Date:

Thursday, August 15, 2013

  Actual Average Record
Temperature  
Mean Temperature 80 °F -  
Max Temperature 96 °F 90 °F 104 °F (1962)
Min Temperature 64 °F 58 °F 50 °F (1955)
Cooling Degree Days 14    
Growing Degree Days 30 (Base 50)    
Moisture  
Dew Point 59 °F    
Average Humidity 59    
Maximum Humidity 87    
Minimum Humidity 22    
Precipitation  
Precipitation 0.00 in - - ()
Sea Level Pressure  
Sea Level Pressure 29.87 in    
Wind  
Wind Speed 9 mph (South)    
Max Wind Speed 13 mph    
Max Gust Speed -    
Visibility 10 miles    
Events      
Averages and records for this station are not official NWS values.
T = Trace of Precipitation, MM = Missing Value Source: NWS Daily Summary

Daily Weather History Graph

Daily Weather History Graph

Search for Another Location

Airport:

Trip Planner

Search our weather history database for the weather conditions in past years. The results will help you decide how hot, cold, wet, or windy it might be!

Date:

Astronomy

Aug. 15, 2013 Rise Set
Actual Time 6:20 AM PDT 8:00 PM PDT
Civil Twilight 5:52 AM PDT 8:28 PM PDT
Nautical Twilight 5:17 AM PDT 9:02 PM PDT
Astronomical Twilight 4:41 AM PDT 9:38 PM PDT
Moon 3:21 PM PDT (8/15) 12:35 AM PDT (8/15)
Length of Visible Light 14h 36m
Length of Day
13h 39m
Waxing Gibbous, 65% of the Moon is Illuminated
Aug 15
Waxing Gibbous
Aug 20
Full
Aug 28
Last Quarter
Sep 5
New
Sep 12
First Quarter

Hourly Weather History & Observations

Time (PDT) Temp. Heat Index Dew Point Humidity Pressure Visibility Wind Dir Wind Speed Gust Speed Precip Events Conditions
12:53 AM 68.0 °F - 59.0 °F 73% 29.86 in 10.0 mi SSE 10.4 mph - N/A   Clear
1:53 AM 68.0 °F - 59.0 °F 73% 29.86 in 10.0 mi SSE 9.2 mph - N/A   Clear
2:53 AM 66.0 °F - 59.0 °F 78% 29.85 in 10.0 mi SSE 9.2 mph - N/A   Clear
3:53 AM 64.9 °F - 59.0 °F 81% 29.85 in 10.0 mi SSE 9.2 mph - N/A   Clear
4:53 AM 64.9 °F - 59.0 °F 81% 29.85 in 10.0 mi SSE 9.2 mph - N/A   Clear
5:53 AM 64.0 °F - 59.0 °F 84% 29.87 in 10.0 mi SSE 8.1 mph - N/A   Clear
6:53 AM 64.0 °F - 60.1 °F 87% 29.88 in 10.0 mi SSE 6.9 mph - N/A   Clear
7:53 AM 66.0 °F - 60.1 °F 81% 29.90 in 10.0 mi Variable 6.9 mph - N/A   Clear
8:53 AM 69.1 °F - 60.1 °F 73% 29.91 in 10.0 mi SE 8.1 mph - N/A   Clear
9:53 AM 73.0 °F - 60.1 °F 64% 29.91 in 10.0 mi South 8.1 mph - N/A   Clear
10:53 AM 78.1 °F - 61.0 °F 56% 29.92 in 10.0 mi SSE 8.1 mph - N/A   Clear
11:53 AM 82.9 °F 83.2 °F 60.1 °F 46% 29.91 in 10.0 mi South 6.9 mph - N/A   Clear
12:53 PM 86.0 °F 85.7 °F 60.1 °F 41% 29.90 in 10.0 mi SW 8.1 mph - N/A   Clear
1:53 PM 91.0 °F 90.5 °F 60.1 °F 35% 29.89 in 10.0 mi SSW 8.1 mph - N/A   Clear
2:53 PM 93.0 °F 92.3 °F 59.0 °F 32% 29.88 in 10.0 mi Variable 6.9 mph - N/A   Clear
3:53 PM 93.9 °F 92.6 °F 57.0 °F 29% 29.86 in 10.0 mi SSW 9.2 mph - N/A   Clear
4:53 PM 95.0 °F 92.5 °F 53.1 °F 24% 29.84 in 10.0 mi SSW 6.9 mph - N/A   Clear
5:53 PM 95.0 °F - 50.0 °F 22% 29.83 in 10.0 mi SSW 11.5 mph - N/A   Clear
6:53 PM 91.0 °F 88.9 °F 55.0 °F 29% 29.83 in 10.0 mi SSW 12.7 mph - N/A   Clear
7:53 PM 82.9 °F 84.0 °F 63.0 °F 51% 29.84 in 10.0 mi South 12.7 mph - N/A   Clear
8:53 PM 78.1 °F - 63.0 °F 60% 29.85 in 10.0 mi South 10.4 mph - N/A   Clear
10:53 PM 71.1 °F - 62.1 °F 73% 29.87 in 10.0 mi South 10.4 mph - N/A   Clear
11:53 PM 70.0 °F - 62.1 °F 76% 29.88 in 10.0 mi SE 12.7 mph - N/A   Clear